Location: Brabourne
(51.1333°N, 1.0000°E)
Time: 09:06:02
(UTC+00:00)

FALCON 9 DEB - Pass Details

Date: 20 June 2021
Orbit: 358 x 375 km, 53.0° (Epoch: 02 August)

Event Time Altitude Azimuth Distance (km) Brightness Sun altitude
Rises 02:41:02 0° 288° (WNW) 2,260 6.6 -7.2°
Reaches altitude 10° 02:43:11 10° 280° (W) 1,401 5.4 -7.0°
Maximum altitude 02:46:06 37° 211° (SSW) 612 3.4 -6.7°
Drops below altitude 10° 02:48:59 10° 142° (SE) 1,385 5.5 -6.5°
Sets 02:51:06 0° 134° (SE) 2,229 6.7 -6.2°
